User: anonymous
Location: Unspecified
(0.0000°N, 0.0000°E)
Time: 08:15:36
(UTC+02:00)
Language:

ASC 2 Rocket - Orbit

View from above orbital plane
View from above orbital plane
View from above satellite
View from above satellite

Ground track
Ground track

The orbit data is extracted from the following two-line orbital elements,

1 21228U 91028B   14207.55264491  .00000526  00000-0  16293-3 0  3435
2 21228 023.9962 217.3954 1145263 287.8753 234.9146 12.52785046 65135
Epoch (UTC): 26 July 2014 13:15:48
Eccentricity: 0.1145263
inclination: 23.9962°
perigee height: 556 km
apogee height: 2350 km
right ascension of ascending node: 217.3954°
argument of perigee: 287.8753°
revolutions per day: 12.52785046
mean anomaly at epoch: 234.9146°
orbit number at epoch: 6513

The dashed part of the orbit path shows where the satellite is in the earth's shadow,  

DLR